User: anonymous   Login
Location: Kitchener
(43.4500°N, 80.5000°W)
Time: 13:41:00
(UTC-05:00)
Language:

ATLAS 5 CENTAUR R/B - Orbit

View from above orbital plane
View from above orbital plane
View from above satellite
View from above satellite

Ground track
Ground track

The orbit data is extracted from the following two-line orbital elements,

1 31702U 07027B   14320.17901820 0.00000280  00000-0  11781-3 0    01
2 31702  63.3770  91.2567 0169000 351.5106   8.4893 14.18214301    05
Epoch (UTC): 16 November 2014 04:17:47
Eccentricity: 0.0169000
inclination: 63.3770°
perigee height: 709 km
apogee height: 953 km
right ascension of ascending node: 91.2567°
argument of perigee: 351.5106°
revolutions per day: 14.18214301
mean anomaly at epoch: 8.4893°
orbit number at epoch: 0

The dashed part of the orbit path shows where the satellite is in the earth's shadow,  

DLR